DW9577 Weather Reports


time (UTC)temp
C
wind
direction
speed
KPH
gust
KPH
rain 1hr
cm
rain 24hr
cm
rain mn
cm
humidity
%
barometer
mb
20260510204504 19 241 43.5 72.4 0.00 1.17 1.19 37 1003.4
20260510203025 19 173 40.2 57.9 0.00 1.17 1.19 34 1002.7
20260510201504 18 162 40.2 66.0 0.00 1.17 1.19 29 1001.6
20260510200004 18 217 17.7 53.1 0.00 1.17 1.19 26 1000.9
20260510194504 18 163 41.8 53.1 0.00 1.17 1.19 32 1000.2
20260510193004 18 188 22.5 45.1 0.00 1.17 1.19 30 999.5
20260510191524 18 222 35.4 49.9 0.00 1.17 1.19 31 998.5
20260510190004 18 144 35.4 61.2 0.00 1.17 1.19 35 998.0
20260510184504 17 99 30.6 48.3 0.13 1.17 1.19 33 997.3
20260510183004 16 140 8.0 22.5 0.23 1.17 1.19 27 996.3
20260510181504 16 190 24.1 45.1 0.33 1.17 1.19 33 995.7
20260510180003 16 190 25.7 41.8 0.53 1.17 1.19 35 994.9
20260510174503 16 174 32.2 48.3 0.48 1.07 1.07 36 994.3
20260510173003 15 229 25.7 41.8 0.66 0.94 0.94 39 993.7
20260510171504 16 127 33.8 70.8 0.69 0.84 0.84 49 993.5
20260510170003 13 233 6.4 25.7 0.64 0.66 0.64 34 992.2
20260510164524 15 274 41.8 54.7 0.58 0.79 0.58 49 992.0
20260510163003 13 196 20.9 41.8 0.28 0.64 0.28 48 991.6
20260510161504 13 172 33.8 49.9 0.15 0.61 0.15 49 990.7
20260510160003 12 153 14.5 24.1 0.00 0.61 0.00 44 990.2
20260510154504 11 103 6.4 19.3 0.00 0.76 0.00 47 990.0
20260510153004 11 200 17.7 33.8 0.00 0.89 0.00 52 989.4
20260510151504 10 195 19.3 32.2 0.00 0.99 0.00 53 988.9
20260510150003 9 188 16.1 29.0 0.00 2.51 0.00 51 988.3
20260510144503 8 213 17.7 29.0 0.00 2.51 0.00 56 988.1
20260510143024 8 260 19.3 32.2 0.00 2.51 0.00 56 987.4
20260510141504 8 246 22.5 38.6 0.00 2.51 0.00 63 987.6
20260510024504 8 185 24.1 32.2 0.00 3.10 0.99 62 991.0
20260510023004 8 124 17.7 27.4 0.00 3.25 0.99 60 991.2
20260510021504 10 195 14.5 33.8 0.00 3.43 0.99 61 991.3
20260510020004 10 250 9.7 22.5 0.00 3.51 0.99 52 990.9
20260510014525 11 237 25.7 38.6 0.00 3.51 0.99 57 991.1
20260510013025 11 253 27.4 48.3 0.00 3.51 0.99 51 990.8
20260510011504 11 216 24.1 43.5 0.00 3.51 0.99 46 990.5
20260510010004 13 257 32.2 41.8 0.00 3.51 0.99 54 990.8
20260510004526 13 210 24.1 53.1 0.00 3.51 0.99 46 990.4
20260510003005 14 188 27.4 43.5 0.00 3.51 0.99 50 990.6
20260510001505 14 163 30.6 54.7 0.00 3.51 0.99 43 990.1
20260510000005 14 189 24.1 41.8 0.00 3.51 0.99 37 989.7
20260509234505 15 169 27.4 51.5 0.00 3.51 0.99 37 989.6
20260509233005 16 188 20.9 40.2 0.00 3.51 0.99 36 989.4
20260509231505 16 225 16.1 29.0 0.00 3.51 0.99 34 989.3
20260509230005 16 243 30.6 45.1 0.00 3.51 0.99 35 988.9
20260509224505 17 202 27.4 45.1 0.00 3.51 0.99 32 988.6
20260509223004 18 151 37.0 53.1 0.00 3.51 0.99 39 988.8
20260509221505 18 81 32.2 45.1 0.00 3.51 0.99 34 988.4
20260509220004 17 95 24.1 45.1 0.00 3.51 0.99 29 988.1
20260509214504 17 192 1.6 12.9 0.00 3.51 0.99 17 987.3
20260509213005 18 147 35.4 62.8 0.00 3.51 0.99 28 987.1
20260509211504 18 122 29.0 46.7 0.00 3.51 0.99 30 987.1
20260509210005 18 114 19.3 37.0 0.00 3.51 0.99 27 987.0